Weather History for KSDL - September, 2013

Change the Weather History Date:

Tuesday, September 24, 2013

  Actual Average Record
Temperature  
Mean Temperature 80 °F -  
Max Temperature 95 °F 93 °F 102 °F (2002)
Min Temperature 64 °F 71 °F 63 °F (2007)
Cooling Degree Days 14    
Growing Degree Days 30 (Base 50)    
Moisture  
Dew Point 37 °F    
Average Humidity 23    
Maximum Humidity 43    
Minimum Humidity 11    
Precipitation  
Precipitation 0.00 in - - ()
Sea Level Pressure  
Sea Level Pressure 29.82 in    
Wind  
Wind Speed 2 mph (SW)    
Max Wind Speed 8 mph    
Max Gust Speed -    
Visibility 10 miles    
Events      
Averages and records for this station are not official NWS values.
T = Trace of Precipitation, MM = Missing Value Source: NWS Daily Summary

Daily Weather History Graph

Daily Weather History Graph

Search for Another Location

Airport or City:

Trip Planner

Search our weather history database for the weather conditions in past years. The results will help you decide how hot, cold, wet, or windy it might be!

Date:

Astronomy

Sep. 24, 2013 Rise Set
Actual Time 6:17 AM MST 6:21 PM MST
Civil Twilight 5:52 AM MST 6:45 PM MST
Nautical Twilight 5:23 AM MST 7:14 PM MST
Astronomical Twilight 4:54 AM MST 7:44 PM MST
Moon 9:56 PM MST (9/24) 11:20 AM MST (9/24)
Length of Visible Light 12h 53m
Length of Day
12h 03m
Waning Gibbous, 72% of the Moon is Illuminated
Sep 24
Waning Gibbous
Sep 26
Last Quarter
Oct 4
New
Oct 11
First Quarter
Oct 18
Full

Hourly Weather History & Observations

Time (MST) Temp. Dew Point Humidity Pressure Visibility Wind Dir Wind Speed Gust Speed Precip Events Conditions
12:53 AM 72.0 °F 39.0 °F 30% 29.84 in 10.0 mi Calm Calm - N/A   Clear
1:53 AM 72.0 °F 39.0 °F 30% 29.84 in 10.0 mi Calm Calm - N/A   Clear
2:53 AM 70.0 °F 39.9 °F 33% 29.84 in 10.0 mi Calm Calm - N/A   Clear
3:53 AM 68.0 °F 41.0 °F 37% 29.84 in 10.0 mi Calm Calm - N/A   Clear
4:53 AM 64.9 °F 42.1 °F 43% 29.86 in 10.0 mi SSW 3.5 mph - N/A   Clear
5:53 AM 68.0 °F 37.0 °F 32% 29.87 in 10.0 mi Calm Calm - N/A   Clear
6:53 AM 68.0 °F 41.0 °F 37% 29.88 in 10.0 mi Calm Calm - N/A   Clear
7:53 AM 71.1 °F 39.9 °F 32% 29.90 in 10.0 mi WSW 3.5 mph - N/A   Clear
8:53 AM 77.0 °F 39.9 °F 26% 29.91 in 10.0 mi Calm Calm - N/A   Clear
9:53 AM 84.0 °F 34.0 °F 17% 29.91 in 10.0 mi South 8.1 mph - N/A   Clear
10:53 AM 86.0 °F 35.1 °F 16% 29.90 in 10.0 mi SSW 3.5 mph - N/A   Clear
11:53 AM 88.0 °F 32.0 °F 14% 29.88 in 10.0 mi Calm Calm - N/A   Clear
12:53 PM 91.0 °F 30.9 °F 12% 29.85 in 10.0 mi SSE 4.6 mph - N/A   Clear
1:53 PM 93.9 °F 32.0 °F 11% 29.81 in 10.0 mi Variable 3.5 mph - N/A   Clear
2:53 PM 93.9 °F 35.1 °F 13% 29.79 in 10.0 mi West 8.1 mph - N/A   Clear
3:53 PM 95.0 °F 36.0 °F 13% 29.77 in 10.0 mi SW 4.6 mph - N/A   Clear
4:53 PM 93.9 °F 36.0 °F 13% 29.75 in 10.0 mi Calm Calm - N/A   Clear
5:53 PM 93.0 °F 35.1 °F 13% 29.74 in 10.0 mi West 5.8 mph - N/A   Clear
6:53 PM 90.0 °F 36.0 °F 15% 29.74 in 10.0 mi Calm Calm - N/A   Clear
7:53 PM 88.0 °F 37.0 °F 16% 29.75 in 10.0 mi Calm Calm - N/A   Clear
8:53 PM 84.9 °F 37.0 °F 18% 29.75 in 10.0 mi Calm Calm - N/A   Clear
9:53 PM 82.0 °F 37.9 °F 21% 29.75 in 10.0 mi NNE 3.5 mph - N/A   Clear
10:53 PM 80.1 °F 39.0 °F 23% 29.75 in 10.0 mi Calm Calm - N/A   Clear
11:53 PM 78.1 °F 39.0 °F 25% 29.74 in 10.0 mi NE 3.5 mph - N/A   Clear